TimeCST,TemperatureF,Dew PointF,Humidity,Sea Level PressureIn,VisibilityMPH,Wind Direction,Wind SpeedMPH,Gust SpeedMPH,PrecipitationIn,Events,Conditions,WindDirDegrees,DateUTC
12:54 AM,36.0,28.0,73,29.72,5.0,ENE,20.7,31.1,0.00,Snow,Light Snow,70,2013-02-26 06:54:00
1:13 AM,35.6,28.4,75,29.69,4.0,ENE,23.0,32.2,0.00,Snow,Light Snow,70,2013-02-26 07:13:00
1:24 AM,33.8,28.4,81,29.68,1.8,ENE,26.5,35.7,0.00,Snow,Light Snow,70,2013-02-26 07:24:00
1:52 AM,33.8,30.2,87,29.64,1.8,ENE,20.7,28.8,0.00,Snow,Light Snow,60,2013-02-26 07:52:00
1:54 AM,33.1,30.0,89,29.65,1.8,ENE,20.7,28.8,0.00,Snow,Light Snow,60,2013-02-26 07:54:00
2:12 AM,33.8,30.2,87,29.62,1.5,ENE,17.3,29.9,0.00,Snow,Light Snow,60,2013-02-26 08:12:00
2:27 AM,33.8,30.2,87,29.62,3.0,NE,16.1,26.5,0.00,Snow,Light Snow,50,2013-02-26 08:27:00
2:37 AM,33.8,30.2,87,29.61,6.0,ENE,19.6,-,0.00,,Overcast,60,2013-02-26 08:37:00
2:54 AM,33.1,30.0,89,29.60,4.0,NE,18.4,-,0.00,Snow,Light Snow,50,2013-02-26 08:54:00
3:26 AM,33.8,28.4,81,29.55,2.0,NE,21.9,-,0.00,Snow,Light Snow,50,2013-02-26 09:26:00
3:33 AM,33.8,28.4,81,29.54,1.8,NE,21.9,-,0.00,Snow,Light Snow,50,2013-02-26 09:33:00
3:45 AM,33.8,28.4,81,29.53,2.0,NE,20.7,27.6,0.00,Snow,Light Snow,40,2013-02-26 09:45:00
3:54 AM,34.0,28.9,82,29.55,3.0,NE,20.7,-,0.00,Snow,Light Snow,50,2013-02-26 09:54:00
4:06 AM,33.8,28.4,81,29.54,1.8,ENE,19.6,-,0.00,Snow,Light Snow,60,2013-02-26 10:06:00
4:35 AM,33.8,28.4,81,29.51,1.0,NE,21.9,32.2,0.01,Snow,Light Snow,50,2013-02-26 10:35:00
4:44 AM,33.8,28.4,81,29.51,0.8,NE,23.0,31.1,0.01,Snow,Light Snow,50,2013-02-26 10:44:00
4:54 AM,32.0,30.0,92,29.53,0.5,NE,23.0,32.2,0.01,Fog-Snow,Snow,50,2013-02-26 10:54:00
5:20 AM,32.0,30.2,93,29.50,0.5,NE,21.9,-,0.02,Fog-Snow,Snow,50,2013-02-26 11:20:00
5:54 AM,32.0,30.9,96,29.50,0.5,NE,21.9,-,0.05,Fog-Snow,Snow,50,2013-02-26 11:54:00
6:38 AM,32.0,30.2,93,29.46,1.0,NE,24.2,-,0.02,Snow,Light Snow,50,2013-02-26 12:38:00
6:46 AM,32.0,30.2,93,29.46,1.0,NE,24.2,-,0.03,Snow,Light Snow,50,2013-02-26 12:46:00
6:54 AM,32.0,30.9,96,29.49,1.0,NE,24.2,-,0.03,Snow,Light Snow,50,2013-02-26 12:54:00
7:10 AM,32.0,30.2,93,29.47,0.5,NE,23.0,-,0.01,Fog-Snow,Snow,50,2013-02-26 13:10:00
7:29 AM,33.8,30.2,87,29.47,0.2,NE,20.7,-,0.02,Fog-Snow,Heavy Snow,50,2013-02-26 13:29:00
7:39 AM,33.8,30.2,87,29.47,0.5,NE,19.6,-,0.02,Fog-Snow,Snow,50,2013-02-26 13:39:00
7:50 AM,33.8,32.0,93,29.47,0.2,NE,17.3,-,0.03,Fog-Snow,Heavy Snow,50,2013-02-26 13:50:00
7:54 AM,33.1,32.0,96,29.49,0.5,NE,17.3,-,0.03,Fog-Snow,Snow,50,2013-02-26 13:54:00
8:13 AM,33.8,30.2,87,29.47,2.0,NE,18.4,-,0.00,Snow,Light Snow,50,2013-02-26 14:13:00
8:25 AM,33.8,32.0,93,29.47,1.8,NE,20.7,25.3,0.00,Snow,Light Snow,50,2013-02-26 14:25:00
8:36 AM,33.8,30.2,87,29.46,2.0,NE,21.9,31.1,0.00,Snow,Light Snow,50,2013-02-26 14:36:00
8:54 AM,33.8,30.2,87,29.47,2.5,NE,20.7,-,N/A,Snow,Light Snow,50,2013-02-26 14:54:00
9:12 AM,33.8,30.2,87,29.47,3.0,NE,20.7,-,0.00,Snow,Light Snow,50,2013-02-26 15:12:00
9:54 AM,33.1,30.9,92,29.48,7.0,NE,16.1,-,0.00,,Overcast,50,2013-02-26 15:54:00
10:28 AM,33.8,30.2,87,29.46,2.0,NE,19.6,-,N/A,,Overcast,50,2013-02-26 16:28:00
10:42 AM,33.8,30.2,87,29.46,1.8,NE,17.3,-,N/A,,Overcast,50,2013-02-26 16:42:00
10:54 AM,33.1,30.9,92,29.48,1.8,NE,16.1,-,N/A,,Overcast,40,2013-02-26 16:54:00
11:54 AM,34.0,32.0,92,29.48,1.5,NE,16.1,-,0.01,,Overcast,40,2013-02-26 17:54:00
12:34 PM,33.8,30.2,87,29.45,2.0,NNE,16.1,-,0.01,,Overcast,30,2013-02-26 18:34:00
12:54 PM,34.0,32.0,92,29.47,2.0,NNE,16.1,-,0.01,,Overcast,30,2013-02-26 18:54:00
1:10 PM,33.8,30.2,87,29.45,4.0,NE,18.4,-,0.00,,Overcast,40,2013-02-26 19:10:00
1:34 PM,33.8,30.2,87,29.45,2.5,NE,17.3,-,0.00,,Overcast,40,2013-02-26 19:34:00
1:46 PM,33.8,30.2,87,29.46,3.0,NNE,17.3,-,0.00,,Overcast,30,2013-02-26 19:46:00
1:54 PM,34.0,30.9,89,29.48,4.0,NNE,18.4,-,0.00,,Overcast,30,2013-02-26 19:54:00
2:54 PM,33.1,30.9,92,29.50,3.0,NNE,15.0,24.2,N/A,,Overcast,20,2013-02-26 20:54:00
3:03 PM,33.8,30.2,87,29.48,2.5,NNE,18.4,-,N/A,,Overcast,20,2013-02-26 21:03:00
3:17 PM,33.8,30.2,87,29.49,3.0,NNE,17.3,-,N/A,,Overcast,20,2013-02-26 21:17:00
3:54 PM,33.1,30.9,92,29.52,3.0,North,16.1,-,N/A,,Overcast,10,2013-02-26 21:54:00
4:03 PM,33.8,30.2,87,29.51,2.5,North,17.3,-,N/A,,Overcast,10,2013-02-26 22:03:00
4:21 PM,33.8,30.2,87,29.51,1.8,North,18.4,-,N/A,,Overcast,10,2013-02-26 22:21:00
4:32 PM,33.8,30.2,87,29.51,2.5,North,20.7,-,N/A,,Overcast,10,2013-02-26 22:32:00
4:42 PM,33.8,30.2,87,29.51,4.0,NNE,19.6,-,N/A,,Overcast,20,2013-02-26 22:42:00
4:54 PM,33.1,30.0,89,29.54,7.0,North,19.6,-,N/A,,Overcast,10,2013-02-26 22:54:00
5:19 PM,33.8,28.4,81,29.53,10.0,North,19.6,-,N/A,,Overcast,10,2013-02-26 23:19:00
5:54 PM,32.0,28.9,88,29.58,10.0,North,18.4,-,N/A,,Overcast,10,2013-02-26 23:54:00
6:54 PM,33.1,28.0,82,29.61,10.0,North,15.0,-,N/A,,Overcast,360,2013-02-27 00:54:00
7:54 PM,32.0,28.0,85,29.63,10.0,North,12.7,-,N/A,,Overcast,350,2013-02-27 01:54:00
8:51 PM,32.0,26.6,80,29.62,10.0,North,12.7,-,N/A,,Overcast,360,2013-02-27 02:51:00
8:54 PM,32.0,27.0,82,29.64,10.0,North,11.5,-,N/A,,Overcast,350,2013-02-27 02:54:00
9:52 PM,30.2,28.4,93,29.63,9.0,NNW,13.8,-,N/A,,Overcast,330,2013-02-27 03:52:00
9:54 PM,30.9,28.0,89,29.65,9.0,NW,12.7,-,N/A,,Overcast,320,2013-02-27 03:54:00
10:54 PM,30.9,28.0,89,29.66,9.0,NNW,13.8,-,N/A,,Overcast,340,2013-02-27 04:54:00
11:54 PM,30.9,28.0,89,29.67,7.0,NW,11.5,-,N/A,,Overcast,310,2013-02-27 05:54:00